When you browse on this site, cookies collect data to enhance your experience and personalize the content and advertising you see.
Visit our Privacy Policy to learn more. By continuing to use the site, you agree to this use of cookies and data.
  • Em Portugal
  • Lista de países
  • Para 7 dias
  • Temperatura da água
  • Mapas de satélite
  • Mapa do tempo
  • Widgets de tempo
  • user-avatar
    Iniciar Sessão

    Previsão horária em Ruse

    Hoje, 11 Dezembro, Terça-feira

    Tempo Temperatura Precipitação Vento Pressão Humidade
    00:00 +1°C° 0.3 mm 4 m/s 751 mmHg 84%
    01:00 +1°C° 0.3 mm 5 m/s 751 mmHg 83%
    02:00 +1°C° 0.3 mm 5 m/s 751 mmHg 83%
    03:00 +1°C° 0.3 mm 5 m/s 751 mmHg 83%
    04:00 0°C° 0.3 mm 4 m/s 751 mmHg 83%
    05:00 0°C° 0.3 mm 4 m/s 751 mmHg 84%
    06:00 0°C° 0.3 mm 4 m/s 752 mmHg 84%
    07:00 0°C° 0.3 mm 4 m/s 752 mmHg 84%
    08:00 0°C° 0.3 mm 4 m/s 752 mmHg 84%
    09:00 0°C° 0.2 mm 4 m/s 753 mmHg 82%
    10:00 +1°C° 0.2 mm 5 m/s 753 mmHg 80%
    11:00 +1°C° 0.2 mm 5 m/s 753 mmHg 79%
    12:00 +2°C° 0.1 mm 5 m/s 753 mmHg 78%
    13:00 +3°C° 0.1 mm 4 m/s 754 mmHg 76%
    14:00 +3°C° 0.1 mm 4 m/s 754 mmHg 75%
    15:00 +3°C° 0.1 mm 4 m/s 754 mmHg 75%
    16:00 +2°C° 0.1 mm 3 m/s 754 mmHg 75%
    17:00 +2°C° 0.1 mm 3 m/s 755 mmHg 75%
    18:00 +2°C° 0.1 mm 3 m/s 755 mmHg 76%
    19:00 +1°C° 0.1 mm 3 m/s 755 mmHg 77%
    20:00 +1°C° 0.1 mm 3 m/s 755 mmHg 77%
    21:00 0°C° 0.1 mm 4 m/s 755 mmHg 78%
    22:00 0°C° 0.1 mm 4 m/s 756 mmHg 79%
    23:00 -1°C° 0.1 mm 4 m/s 756 mmHg 80%

    Amanhã, 12 Dezembro, Quarta-feira

    Tempo Temperatura Precipitação Vento Pressão Humidade
    00:00 -1°C° 0.2 mm 4 m/s 756 mmHg 81%
    01:00 -1°C° 0.2 mm 4 m/s 756 mmHg 82%
    02:00 -1°C° 0.2 mm 4 m/s 756 mmHg 83%
    03:00 -1°C° 0.3 mm 4 m/s 756 mmHg 84%
    04:00 -1°C° 0.3 mm 4 m/s 756 mmHg 86%
    05:00 -1°C° 0.3 mm 4 m/s 756 mmHg 87%
    06:00 -1°C° 0.1 mm 4 m/s 756 mmHg 87%
    07:00 -2°C° 0.1 mm 4 m/s 757 mmHg 88%
    08:00 -1°C° 0.1 mm 3 m/s 757 mmHg 88%
    09:00 -1°C° 0 mm 4 m/s 757 mmHg 86%
    10:00 0°C° 0 mm 4 m/s 757 mmHg 85%
    11:00 +1°C° 0 mm 4 m/s 757 mmHg 83%
    12:00 +1°C° 0 mm 4 m/s 757 mmHg 82%
    13:00 +3°C° 0 mm 4 m/s 757 mmHg 80%
    14:00 +3°C° 0 mm 4 m/s 757 mmHg 79%
    15:00 +3°C° 0 mm 4 m/s 757 mmHg 79%
    16:00 +1°C° 0 mm 4 m/s 757 mmHg 79%
    17:00 +2°C° 0 mm 3 m/s 757 mmHg 79%
    18:00 +1°C° 0 mm 3 m/s 757 mmHg 79%
    19:00 +1°C° 0 mm 3 m/s 757 mmHg 78%
    20:00 +1°C° 0 mm 3 m/s 758 mmHg 78%
    21:00 0°C° 0 mm 4 m/s 758 mmHg 77%
    22:00 -1°C° 0 mm 4 m/s 758 mmHg 75%
    23:00 -1°C° 0 mm 4 m/s 758 mmHg 74%

    Depois de amanhã, 13 Dezembro, Quinta-feira

    Tempo Temperatura Precipitação Vento Pressão Humidade
    00:00 -1°C° 0 mm 4 m/s 758 mmHg 75%
    01:00 -1°C° 0 mm 4 m/s 758 mmHg 75%
    02:00 -1°C° 0 mm 4 m/s 758 mmHg 75%
    03:00 0°C° 0 mm 3 m/s 758 mmHg 75%
    04:00 0°C° 0 mm 3 m/s 758 mmHg 75%
    05:00 0°C° 0 mm 3 m/s 758 mmHg 75%
    06:00 -1°C° 0 mm 3 m/s 759 mmHg 75%
    07:00 -1°C° 0 mm 3 m/s 759 mmHg 74%
    08:00 -1°C° 0 mm 3 m/s 759 mmHg 74%
    09:00 +1°C° 0 mm 3 m/s 759 mmHg 70%
    10:00 +2°C° 0 mm 3 m/s 759 mmHg 66%
    11:00 +3°C° 0 mm 3 m/s 759 mmHg 63%
    12:00 +5°C° 0 mm 2 m/s 758 mmHg 61%
    13:00 +5°C° 0 mm 2 m/s 758 mmHg 60%
    14:00 +5°C° 0 mm 2 m/s 757 mmHg 59%
    15:00 +5°C° 0 mm 1 m/s 757 mmHg 62%
    16:00 +4°C° 0 mm 1 m/s 757 mmHg 65%
    17:00 +3°C° 0 mm 1 m/s 757 mmHg 68%
    18:00 +3°C° 0 mm 1 m/s 757 mmHg 69%
    19:00 +3°C° 0 mm 1 m/s 757 mmHg 69%
    20:00 +3°C° 0 mm 1 m/s 757 mmHg 70%
    21:00 +3°C° 0.2 mm 1 m/s 757 mmHg 72%
    22:00 +3°C° 0.2 mm 1 m/s 757 mmHg 74%
    23:00 +3°C° 0.2 mm 1 m/s 757 mmHg 76%

    14 Dezembro, Sexta-feira

    Tempo Temperatura Precipitação Vento Pressão Humidade
    00:00 +3°C° 0.6 mm 1 m/s 757 mmHg 77%
    01:00 +3°C° 0.6 mm 1 m/s 757 mmHg 79%
    02:00 +3°C° 0.6 mm 1 m/s 757 mmHg 81%
    03:00 +3°C° 0.3 mm 1 m/s 757 mmHg 82%
    04:00 +3°C° 0.3 mm 1 m/s 757 mmHg 83%
    05:00 +3°C° 0.3 mm 1 m/s 757 mmHg 85%
    06:00 +2°C° 0 mm 1 m/s 758 mmHg 86%
    07:00 +2°C° 0 mm 1 m/s 758 mmHg 87%
    08:00 +1°C° 0 mm 1 m/s 759 mmHg 87%
    09:00 +2°C° 0 mm 1 m/s 759 mmHg 86%
    10:00 +3°C° 0 mm 1 m/s 759 mmHg 85%
    11:00 +3°C° 0 mm 1 m/s 760 mmHg 84%
    12:00 +4°C° 0 mm 1 m/s 760 mmHg 83%
    13:00 +4°C° 0 mm 1 m/s 760 mmHg 81%
    14:00 +4°C° 0 mm 1 m/s 760 mmHg 79%
    15:00 +4°C° 0 mm 1 m/s 760 mmHg 82%
    16:00 +3°C° 0 mm 1 m/s 760 mmHg 84%
    17:00 +1°C° 0 mm 0 m/s 761 mmHg 86%
    18:00 +1°C° 0 mm 1 m/s 761 mmHg 86%
    19:00 +1°C° 0 mm 1 m/s 762 mmHg 86%
    20:00 +1°C° 0 mm 1 m/s 762 mmHg 87%
    21:00 +1°C° 0 mm 1 m/s 763 mmHg 86%
    22:00 +1°C° 0 mm 1 m/s 763 mmHg 86%
    23:00 +1°C° 0 mm 1 m/s 763 mmHg 86%

    15 Dezembro, Sábado

    Tempo Temperatura Precipitação Vento Pressão Humidade
    00:00 +1°C° 0 mm 1 m/s 763 mmHg 85%
    01:00 +1°C° 0 mm 1 m/s 763 mmHg 85%
    02:00 +1°C° 0 mm 1 m/s 763 mmHg 85%
    03:00 -1°C° 0 mm 2 m/s 763 mmHg 85%
    04:00 -1°C° 0 mm 2 m/s 763 mmHg 84%
    05:00 -1°C° 0 mm 2 m/s 763 mmHg 84%
    06:00 -1°C° 0 mm 2 m/s 763 mmHg 84%
    07:00 -1°C° 0 mm 2 m/s 763 mmHg 83%
    08:00 -1°C° 0 mm 2 m/s 764 mmHg 82%
    09:00 +1°C° 0.1 mm 2 m/s 764 mmHg 81%
    10:00 +1°C° 0.1 mm 3 m/s 764 mmHg 80%
    11:00 +1°C° 0.1 mm 3 m/s 764 mmHg 79%
    12:00 +1°C° 0.3 mm 3 m/s 764 mmHg 81%
    13:00 +1°C° 0.3 mm 3 m/s 763 mmHg 83%
    14:00 +1°C° 0.3 mm 3 m/s 763 mmHg 85%
    15:00 +1°C° 0.6 mm 3 m/s 763 mmHg 87%
    16:00 +1°C° 0.6 mm 3 m/s 763 mmHg 89%
    17:00 +1°C° 0.6 mm 3 m/s 763 mmHg 92%
    18:00 0°C° 0.6 mm 4 m/s 763 mmHg 92%
    19:00 0°C° 0.6 mm 4 m/s 763 mmHg 93%
    20:00 0°C° 0.6 mm 4 m/s 763 mmHg 94%
    21:00 0°C° 0.6 mm 4 m/s 763 mmHg 94%
    22:00 0°C° 0.6 mm 4 m/s 763 mmHg 95%
    23:00 -1°C° 0.6 mm 4 m/s 763 mmHg 95%

    16 Dezembro, Domingo

    Tempo Temperatura Precipitação Vento Pressão Humidade
    00:00 -1°C° 0.7 mm 4 m/s 762 mmHg 95%
    01:00 -1°C° 0.7 mm 4 m/s 762 mmHg 96%
    02:00 -1°C° 0.7 mm 4 m/s 762 mmHg 96%
    03:00 -1°C° 0.6 mm 4 m/s 762 mmHg 96%
    04:00 -1°C° 0.6 mm 4 m/s 762 mmHg 96%
    05:00 -1°C° 0.6 mm 4 m/s 762 mmHg 96%
    06:00 -1°C° 0.6 mm 4 m/s 762 mmHg 96%
    07:00 0°C° 0.6 mm 3 m/s 762 mmHg 96%
    08:00 0°C° 0.6 mm 3 m/s 762 mmHg 96%
    09:00 0°C° 0.8 mm 3 m/s 762 mmHg 96%
    10:00 0°C° 0.8 mm 3 m/s 762 mmHg 96%
    11:00 -1°C° 0.8 mm 3 m/s 763 mmHg 96%
    12:00 -1°C° 0.8 mm 3 m/s 762 mmHg 96%
    13:00 -1°C° 0.8 mm 3 m/s 762 mmHg 96%
    14:00 -1°C° 0.8 mm 3 m/s 762 mmHg 96%
    15:00 -1°C° 0.9 mm 3 m/s 762 mmHg 97%
    16:00 -1°C° 0.9 mm 2 m/s 763 mmHg 97%
    17:00 -1°C° 0.9 mm 2 m/s 763 mmHg 97%
    18:00 -1°C° 0.7 mm 2 m/s 763 mmHg 97%
    19:00 -1°C° 0.7 mm 2 m/s 763 mmHg 97%
    20:00 -2°C° 0.7 mm 2 m/s 764 mmHg 97%
    21:00 -2°C° 0.3 mm 2 m/s 764 mmHg 97%
    22:00 -2°C° 0.3 mm 2 m/s 764 mmHg 97%
    23:00 0°C° 0.3 mm 1 m/s 764 mmHg 97%
    Mostrar mais